Tracking 27188 objects as of 1-Apr-2023
HD Live streaming from Space Station
objects crossing your sky now

STARLINK-5577

Track STARLINK-5577 now!
10-day predictions
STARLINK-5577 is classified as:


NORAD ID: 55751
Int'l Code: 2023-028L
Perigee: 405.7 km
Apogee: 410.4 km
Inclination: 70.0 °
Period: 92.6 minutes
Semi major axis: 6779 km
RCS: Unknown
Launch date: March 3, 2023
Source: United States (US)
Launch site: AIR FORCE WESTERN TEST RANGE (AFWTR)
Your satellite tracking list
Your tracking list is empty




NASA's NSSDC Master Catalog

Two Line Element Set (TLE):
1 55751U 23028L   23091.25001157 -.00871192  00000-0 -13959-1 0  9992
2 55751  70.0008  75.3319 0003478 271.2147 335.3671 15.55428984  5132
Source of the keplerian elements: AFSPC